Location: Carrières
(48.9495°N, 2.0407°E)
Time: 21:32:33
(UTC+00:00)

Altair - All Passes

Search period start: 12 April 2024 00:00
Search period end: 22 April 2024 00:00
Orbit: 1502 x 1682 km, 47.2° (Epoch: 11 April)

Date Brightness Start Highest point End Pass type
(mag) Time Alt. Az. Time Alt. Az. Time Alt. Az.
12 Apr - 01:23:05 10° W 01:32:37 71° SSW 01:41:47 10° ESE visible
12 Apr - 03:28:04 10° WNW 03:36:18 36° SW 03:44:22 10° SSE visible
12 Apr - 18:48:59 10° S 18:55:27 20° SE 19:01:46 10° E daylight
12 Apr - 20:49:06 10° SW 20:58:33 51° SSE 21:07:40 10° ENE visible
12 Apr - 22:53:01 10° WSW 23:02:49 80° S 23:12:15 10° E visible
13 Apr - 00:57:51 10° W 01:07:26 73° SSW 01:16:39 10° ESE visible
13 Apr - 03:02:47 10° WNW 03:11:13 38° SW 03:19:27 10° SSE visible
13 Apr - 05:12:12 10° WSW 05:13:38 10° WSW 05:15:04 10° SW daylight
13 Apr - 18:24:24 10° SSE 18:30:23 18° SE 18:36:15 10° E daylight
13 Apr - 20:24:01 10° SW 20:33:24 49° SSE 20:42:28 10° ENE visible
13 Apr - 22:27:46 10° WSW 22:37:36 79° S 22:47:04 10° E visible
14 Apr - 00:32:36 10° W 00:42:14 75° SSW 00:51:31 10° ESE visible
14 Apr - 02:37:30 10° WNW 02:46:08 41° SW 02:54:30 10° SSE visible
14 Apr - 04:45:31 10° WSW 04:48:39 12° WSW 04:51:45 10° SW daylight
14 Apr - 17:59:55 10° SSE 18:05:20 16° SE 18:10:41 10° E daylight
14 Apr - 19:58:57 10° SW 20:08:15 46° SE 20:17:16 10° ENE visible
14 Apr - 22:02:32 10° WSW 22:12:24 77° SSE 22:21:53 10° E visible
15 Apr - 00:07:21 10° W 00:17:03 77° SSW 00:26:21 10° ESE visible
15 Apr - 02:12:14 10° WNW 02:21:01 44° SW 02:29:33 10° SSE visible
15 Apr - 04:19:30 10° W 04:23:39 14° SW 04:27:45 10° SSW visible
15 Apr - 17:35:33 10° SSE 17:40:18 14° SE 17:44:59 10° E daylight
15 Apr - 19:33:54 10° SSW 19:43:07 44° SE 19:52:02 10° ENE visible
15 Apr - 21:37:18 10° WSW 21:47:12 76° SSE 21:56:42 10° E visible
15 Apr - 23:42:06 10° W 23:51:51 78° S 00:01:12 10° ESE visible
16 Apr - 01:46:59 10° WNW 01:55:55 46° SW 02:04:34 10° SE visible
16 Apr - 03:53:44 10° W 03:58:38 16° SW 04:03:29 10° SSW visible
16 Apr - 17:11:23 10° SSE 17:15:16 13° ESE 17:19:05 10° E daylight
16 Apr - 19:08:52 10° SSW 19:17:58 41° SE 19:26:49 10° ENE visible
16 Apr - 21:12:05 10° WSW 21:21:59 74° SSE 21:31:31 10° E visible
16 Apr - 23:16:51 10° W 23:26:39 79° S 23:36:03 10° ESE visible
17 Apr - 01:21:43 10° WNW 01:30:48 49° SSW 01:39:33 10° SE visible
17 Apr - 03:28:06 10° W 03:33:37 17° SW 03:39:05 10° SSW visible
17 Apr - 16:47:36 10° SE 16:50:14 11° ESE 16:52:51 10° ESE daylight
17 Apr - 18:43:52 10° SSW 18:52:50 39° SE 19:01:35 10° ENE daylight
17 Apr - 20:46:52 10° WSW 20:56:47 73° SSE 21:06:19 10° E visible
17 Apr - 22:51:36 10° W 23:01:26 80° S 23:10:53 10° ESE visible
18 Apr - 00:56:29 10° WNW 01:05:40 52° SSW 01:14:32 10° SE visible
18 Apr - 03:02:32 10° W 03:08:36 19° SW 03:14:34 10° S visible
18 Apr - 18:18:53 10° SSW 18:27:43 37° SE 18:36:20 10° ENE daylight
18 Apr - 20:21:39 10° WSW 20:31:34 71° SSE 20:41:09 10° E visible
18 Apr - 22:26:21 10° W 22:36:14 81° S 22:45:42 10° E visible
19 Apr - 00:31:13 10° WNW 00:40:32 55° SSW 00:49:29 10° SE visible
19 Apr - 02:37:03 10° W 02:43:34 21° SW 02:49:58 10° S visible
19 Apr - 17:53:56 10° SSW 18:02:36 34° SE 18:11:04 10° ENE daylight
19 Apr - 19:56:28 10° WSW 20:06:22 69° SSE 20:15:57 10° E visible
19 Apr - 22:01:06 10° W 22:11:01 82° S 22:20:31 10° E visible
20 Apr - 00:05:58 10° WNW 00:15:23 57° SSW 00:24:26 10° SE visible
20 Apr - 02:11:36 10° W 02:18:32 23° SW 02:25:18 10° S visible
20 Apr - 17:29:01 10° SSW 17:37:29 32° SE 17:45:46 10° E daylight
20 Apr - 19:31:16 10° WSW 19:41:10 66° SSE 19:50:45 10° E visible
20 Apr - 21:35:50 10° W 21:45:47 82° S 21:55:20 10° E visible
20 Apr - 23:40:43 10° WNW 23:50:14 60° SSW 23:59:22 10° SE visible
21 Apr - 01:46:12 10° W 01:53:29 25° SW 02:00:36 10° S visible
21 Apr - 17:04:08 10° S 17:12:23 30° SE 17:20:28 10° E daylight
21 Apr - 19:06:06 10° SW 19:15:59 64° SSE 19:25:33 10° ENE visible
21 Apr - 21:10:34 10° W 21:20:34 82° S 21:30:09 10° E visible
21 Apr - 23:15:28 10° WNW 23:25:04 63° SSW 23:34:17 10° SE visible
